User: anonymous   Login
Location: Columbia
(38.9520°N, 92.3340°W)
Time: 07:03:03
(UTC-05:00)
Language:

Cosmos 1603 - Orbit

View from above orbital plane
View from above orbital plane
View from above satellite
View from above satellite

Ground track
Ground track

The orbit data is extracted from the following two-line orbital elements,

1 15333U 84106A   17085.93718991 -.00000094 +00000-0 -24537-4 0  9992
2 15333 071.0260 264.6026 0021025 326.6733 033.3064 14.14058622676392
Epoch (UTC): 26 March 2017 22:29:33
Eccentricity: 0.0021025
inclination: 71.0260°
perigee height: 830 km
apogee height: 861 km
right ascension of ascending node: 264.6026°
argument of perigee: 326.6733°
revolutions per day: 14.14058622
mean anomaly at epoch: 33.3064°
orbit number at epoch: 67639

The dashed part of the orbit path shows where the satellite is in the earth's shadow,  

DLR